TimeMST,TemperatureF,Dew PointF,Humidity,Sea Level PressureIn,VisibilityMPH,Wind Direction,Wind SpeedMPH,Gust SpeedMPH,PrecipitationIn,Events,Conditions,WindDirDegrees,DateUTC
12:15 AM,44.6,24.8,46,30.24,10.0,SSE,12.7,17.3,N/A,,Clear,160,2012-11-07 07:15:00
12:35 AM,44.6,24.8,46,30.24,10.0,SSE,11.5,16.1,N/A,,Clear,150,2012-11-07 07:35:00
12:55 AM,44.6,23.0,43,30.23,10.0,SSE,11.5,19.6,N/A,,Clear,150,2012-11-07 07:55:00
1:15 AM,48.2,23.0,37,30.22,10.0,SSE,13.8,21.9,N/A,,Clear,160,2012-11-07 08:15:00
1:35 AM,46.4,23.0,40,30.23,10.0,SE,6.9,-,N/A,,Clear,140,2012-11-07 08:35:00
1:55 AM,46.4,23.0,40,30.22,10.0,SE,11.5,17.3,N/A,,Clear,140,2012-11-07 08:55:00
2:15 AM,48.2,21.2,34,30.21,10.0,SSE,17.3,-,N/A,,Clear,160,2012-11-07 09:15:00
2:35 AM,48.2,21.2,34,30.20,10.0,SSE,13.8,-,N/A,,Clear,160,2012-11-07 09:35:00
3:15 AM,46.4,21.2,37,30.19,10.0,South,12.7,17.3,N/A,,Clear,170,2012-11-07 10:15:00
3:35 AM,46.4,19.4,34,30.18,10.0,South,11.5,-,N/A,,Clear,190,2012-11-07 10:35:00
3:55 AM,42.8,24.8,49,30.18,10.0,SSE,8.1,-,N/A,,Clear,160,2012-11-07 10:55:00
4:15 AM,42.8,23.0,46,30.17,10.0,SSE,9.2,-,N/A,,Clear,160,2012-11-07 11:15:00
4:35 AM,41.0,23.0,49,30.17,10.0,SSE,9.2,-,N/A,,Clear,160,2012-11-07 11:35:00
4:55 AM,41.0,24.8,53,30.17,10.0,South,11.5,-,N/A,,Clear,170,2012-11-07 11:55:00
5:15 AM,44.6,19.4,37,30.16,10.0,South,16.1,-,N/A,,Clear,190,2012-11-07 12:15:00
5:35 AM,44.6,17.6,34,30.16,10.0,SSW,17.3,-,N/A,,Clear,200,2012-11-07 12:35:00
5:55 AM,46.4,14.0,27,30.16,10.0,SSW,18.4,-,N/A,,Clear,210,2012-11-07 12:55:00
6:35 AM,46.4,17.6,32,30.15,10.0,South,17.3,24.2,N/A,,Clear,190,2012-11-07 13:35:00
6:55 AM,44.6,19.4,37,30.14,10.0,South,18.4,-,N/A,,Clear,190,2012-11-07 13:55:00
7:15 AM,44.6,19.4,37,30.14,10.0,SSW,23.0,-,N/A,,Clear,200,2012-11-07 14:15:00
7:35 AM,46.4,19.4,34,30.15,10.0,SW,17.3,26.5,N/A,,Clear,220,2012-11-07 14:35:00
7:55 AM,46.4,19.4,34,30.16,10.0,SSW,18.4,24.2,N/A,,Clear,200,2012-11-07 14:55:00
8:15 AM,50.0,19.4,30,30.15,10.0,SW,18.4,26.5,N/A,,Clear,220,2012-11-07 15:15:00
8:35 AM,51.8,19.4,28,30.16,10.0,SW,23.0,31.1,N/A,,Clear,230,2012-11-07 15:35:00
9:15 AM,51.8,19.4,28,30.15,10.0,WSW,27.6,34.5,N/A,,Clear,240,2012-11-07 16:15:00
9:35 AM,51.8,19.4,28,30.14,10.0,WSW,26.5,35.7,N/A,,Clear,240,2012-11-07 16:35:00
9:55 AM,53.6,19.4,26,30.14,10.0,SW,19.6,29.9,N/A,,Clear,220,2012-11-07 16:55:00
10:15 AM,51.8,19.4,28,30.14,10.0,SSW,21.9,29.9,N/A,,Clear,210,2012-11-07 17:15:00
10:35 AM,51.8,21.2,30,30.13,10.0,South,17.3,27.6,N/A,,Clear,190,2012-11-07 17:35:00
10:55 AM,51.8,21.2,30,30.13,10.0,South,15.0,24.2,N/A,,Clear,170,2012-11-07 17:55:00
11:15 AM,53.6,21.2,28,30.12,10.0,South,17.3,27.6,N/A,,Clear,190,2012-11-07 18:15:00
11:35 AM,53.6,21.2,28,30.10,10.0,SSW,19.6,25.3,N/A,,Clear,200,2012-11-07 18:35:00
11:55 AM,53.6,21.2,28,30.10,10.0,SSW,19.6,26.5,N/A,,Clear,200,2012-11-07 18:55:00
12:15 PM,53.6,21.2,28,30.10,10.0,SSW,17.3,24.2,N/A,,Clear,210,2012-11-07 19:15:00
12:35 PM,55.4,19.4,25,30.08,10.0,South,16.1,23.0,N/A,,Clear,190,2012-11-07 19:35:00
12:55 PM,55.4,19.4,25,30.07,10.0,South,16.1,23.0,N/A,,Clear,180,2012-11-07 19:55:00
1:15 PM,55.4,19.4,25,30.06,10.0,SSE,15.0,23.0,N/A,,Clear,160,2012-11-07 20:15:00
1:35 PM,55.4,19.4,25,30.06,10.0,SSE,12.7,-,N/A,,Clear,160,2012-11-07 20:35:00
2:15 PM,55.4,14.0,20,30.04,10.0,SSE,15.0,19.6,N/A,,Clear,150,2012-11-07 21:15:00
2:35 PM,55.4,15.8,21,30.05,10.0,South,13.8,-,N/A,,Clear,170,2012-11-07 21:35:00
2:55 PM,55.4,14.0,20,30.04,10.0,SSE,15.0,18.4,N/A,,Clear,160,2012-11-07 21:55:00
3:15 PM,53.6,15.8,22,30.04,10.0,SSE,10.4,-,N/A,,Clear,160,2012-11-07 22:15:00
3:35 PM,53.6,15.8,22,30.04,10.0,SSE,12.7,-,N/A,,Clear,160,2012-11-07 22:35:00
3:55 PM,55.4,17.6,23,30.04,10.0,SSE,12.7,-,N/A,,Clear,160,2012-11-07 22:55:00
4:15 PM,53.6,17.6,24,30.05,10.0,South,15.0,18.4,N/A,,Clear,180,2012-11-07 23:15:00
4:35 PM,53.6,17.6,24,30.04,10.0,South,16.1,19.6,N/A,,Clear,190,2012-11-07 23:35:00
4:55 PM,53.6,19.4,26,30.04,10.0,SSW,11.5,-,N/A,,Clear,200,2012-11-07 23:55:00
5:15 PM,51.8,19.4,28,30.04,10.0,SSW,11.5,-,N/A,,Clear,210,2012-11-08 00:15:00
5:35 PM,51.8,21.2,30,30.04,10.0,SW,12.7,-,N/A,,Clear,230,2012-11-08 00:35:00
5:55 PM,51.8,21.2,30,30.05,10.0,SW,9.2,-,N/A,,Clear,230,2012-11-08 00:55:00
6:15 PM,51.8,21.2,30,30.05,10.0,SW,10.4,-,N/A,,Clear,220,2012-11-08 01:15:00
6:35 PM,51.8,21.2,30,30.06,10.0,SW,9.2,-,N/A,,Clear,230,2012-11-08 01:35:00
6:55 PM,51.8,21.2,30,30.06,10.0,SW,9.2,-,N/A,,Clear,220,2012-11-08 01:55:00
7:15 PM,51.8,21.2,30,30.06,10.0,SW,9.2,-,N/A,,Clear,230,2012-11-08 02:15:00
7:35 PM,51.8,23.0,33,30.06,10.0,SW,11.5,-,N/A,,Clear,230,2012-11-08 02:35:00
7:55 PM,51.8,23.0,33,30.05,10.0,SW,16.1,19.6,N/A,,Clear,230,2012-11-08 02:55:00
8:15 PM,50.0,21.2,32,30.05,10.0,SW,15.0,-,N/A,,Clear,230,2012-11-08 03:15:00
8:35 PM,50.0,21.2,32,30.05,10.0,WSW,17.3,20.7,N/A,,Clear,240,2012-11-08 03:35:00
9:15 PM,50.0,21.2,32,30.05,10.0,WSW,18.4,-,N/A,,Clear,240,2012-11-08 04:15:00
9:35 PM,50.0,19.4,30,30.05,10.0,WSW,20.7,-,N/A,,Clear,240,2012-11-08 04:35:00
10:15 PM,50.0,17.6,28,30.05,10.0,WSW,18.4,-,N/A,,Clear,240,2012-11-08 05:15:00
10:35 PM,50.0,17.6,28,30.05,10.0,WSW,19.6,-,N/A,,Clear,250,2012-11-08 05:35:00
10:55 PM,50.0,17.6,28,30.05,10.0,WSW,17.3,-,N/A,,Clear,250,2012-11-08 05:55:00
11:15 PM,50.0,19.4,30,30.05,10.0,WSW,16.1,-,N/A,,Clear,240,2012-11-08 06:15:00
11:35 PM,50.0,19.4,30,30.05,10.0,SW,12.7,-,N/A,,Clear,220,2012-11-08 06:35:00
11:55 PM,50.0,19.4,30,30.05,10.0,SW,15.0,-,N/A,,Clear,220,2012-11-08 06:55:00